Flag for Czech Republic Weather past 2 weeks in Ostrava, Czech Republic

Now
33 °F

Overcast.


Feels Like: 30 °F
Forecast: 24 / 30 °F
Wind: 3 mph from Southwest

Location: Ostrava / Mosnov

Current Time: Feb 1, 2015 at 3:47:36 PM

Latest Report: Feb 1, 2015 at 3:00 PM


Visibility: 13 mi

Pressure: 29.32 "Hg

Humidity: 71%

Dew point: 25 °F

Location of OstravaLocation

Historic Weather in Ostrava — Graph

°F

Ostrava temperature yesterday

Maximum temperature yesterday: 35 °F (at 8:00 PM)
Minimum temperature yesterday: 26 °F (at 6:00 AM)
Average temperature yesterday: 31 °F

Past Weeks' High & Low Weather Summary

 TemperatureHumidityPressure
High46 °F (Jan 17, 2:00 PM)98% (Jan 18, 8:00 AM)30.34 "Hg (Jan 18, 8:00 AM)
Low14 °F (Jan 26, 11:00 PM)61% (Feb 1, 1:00 PM)28.82 "Hg (Jan 30, 3:00 PM)
Average33 °F87%29.84 "Hg
* Reported Jan 17 2:00 PM — Feb 1 2:00 PM, Ostrava, Weather by CustomWeather, © 2014

Note: Actual official high and low records may vary slightly from our data, if they occured in-between our weather recording intervals... More about our weather records

Advertising

Ostrava weather history for previous 24 hours

 ConditionsComfort  
Time TempWeatherWind HumidityBarometerVisibility
2:00 PM
Feb 1
34 °FOvercast.3 mph66%29.32 "Hg12 mi
1:00 PM34 °FOvercast.5 mph61%29.32 "Hg12 mi
12:00 PM34 °FOvercast.5 mph66%29.32 "Hg12 mi
11:00 AM32 °FOvercast.3 mph63%29.32 "Hg12 mi
10:00 AM28 °FOvercast.3 mph70%29.32 "Hg12 mi
9:00 AM25 °FPartly sunny.N/A78%29.32 "Hg9 mi
8:00 AM20 °FScattered clouds.5 mph92%29.32 "Hg7 mi
7:00 AM22 °FPassing clouds.6 mph92%29.29 "Hg9 mi
6:00 AM22 °FPassing clouds.6 mph93%29.29 "Hg12 mi
5:00 AM22 °FClear.7 mph84%29.26 "Hg12 mi
4:00 AM24 °FPassing clouds.8 mph84%29.26 "Hg12 mi
3:00 AM25 °FPassing clouds.6 mph87%29.26 "Hg12 mi
2:00 AM27 °FPassing clouds.5 mph87%29.26 "Hg12 mi
1:00 AM26 °FPassing clouds.3 mph78%29.23 "Hg12 mi
12:00 AM28 °FPassing clouds.N/A85%29.23 "Hg12 mi
11:00 PM
Jan 31
33 °FPassing clouds.6 mph75%29.21 "Hg12 mi
10:00 PM35 °FOvercast.8 mph74%29.21 "Hg16 mi
9:00 PM34 °FOvercast.7 mph78%29.21 "Hg16 mi
8:00 PM35 °FOvercast.8 mph75%29.18 "Hg16 mi
7:00 PM33 °FOvercast.8 mph81%29.18 "Hg12 mi
6:00 PM32 °FLight snow. Overcast.8 mph82%29.15 "Hg4 mi
5:00 PM32 °FLight snow. Overcast.5 mph76%29.15 "Hg4 mi
4:00 PM33 °FOvercast.6 mph65%29.12 "Hg12 mi
3:00 PM33 °FPartly sunny.5 mph62%29.09 "Hg16 mi
Weather by CustomWeather, © 2014

See weather overviewHow to use our weather pages